This demonstration page uses our WeatherBlox Daily Observations layout. Learn more.

Left ArrowRight Arrow

Hourly Observations for September 13, 2020

Temp ( °F °C ) Dew Point ( °F °C ) Humidity (%) Winds ( mph kmh ) Pressure ( in mb ) Visibility ( mi km ) Precip ( " mm )
12:53 am 00:53 Clear 69 20.6 61 16.1 76 76 NE 5 7 29.93 1013 10 16 0.00 0.00
1:53 am 01:53 Clear 69 20.6 62 16.7 78 78 E 5 7 29.92 1013 10 16 0.00 0.00
2:53 am 02:53 Clear 69 20.6 63 17.2 81 81 ESE 3 6 29.91 1013 10 16 0.00 0.00
3:53 am 03:53 Clear 67 19.4 64 17.8 91 91 Calm 29.92 1013 10 16 0.00 0.00
4:53 am 04:53 Clear 66 18.9 63 17.2 90 90 N 5 7 29.92 1013 10 16 0.00 0.00
5:53 am 05:53 Clear 66 18.9 63 17.2 90 90 Calm 29.93 1013 10 16 0.00 0.00
6:53 am 06:53 Clear 66 18.9 63 17.2 90 90 Calm 29.94 1014 10 16 0.00 0.00
7:53 am 07:53 Sunny 67 19.4 64 17.8 91 91 Calm 29.96 1015 10 16 0.00 0.00
8:53 am 08:53 Sunny 69 20.6 65 18.3 87 87 Calm 30.00 1016 10 16 0.00 0.00
9:53 am 09:53 Sunny 74 23.3 65 18.3 74 74 E 3 6 30.01 1016 10 16 0.00 0.00
10:53 am 10:53 Sunny 77 25 64 17.8 64 64 E 5 7 30.03 1017 10 16 0.00 0.00
11:53 am 11:53 Sunny 78 25.6 64 17.8 62 62 Calm 30.04 1017 10 16 0.00 0.00
12:53 pm 12:53 Mostly Sunny 80 26.7 64 17.8 58 58 ESE 7 11 30.04 1017 10 16 0.00 0.00
1:53 pm 13:53 Sunny 80 26.7 62 16.7 54 54 ENE 6 9 30.01 1016 10 16 0.00 0.00
2:53 pm 14:53 Mostly Sunny 80 26.7 62 16.7 54 54 SSE 7 11 29.99 1016 10 16 0.00 0.00
3:53 pm 15:53 Sunny 81 27.2 60 15.6 49 49 Calm 29.98 1015 10 16 0.00 0.00
4:53 pm 16:53 Sunny 81 27.2 60 15.6 49 49 Calm 29.97 1015 10 16 0.00 0.00
5:53 pm 17:53 Mostly Sunny 76 24.4 59 15 56 56 NE 15 24 30.01 1016 10 16 0.00 0.00
6:53 pm 18:53 Mostly Sunny 77 25 53 11.7 43 43 NE 10 17 30.00 1016 10 16 0.00 0.00
7:53 pm 19:53 Mostly Cloudy 74 23.3 59 15 60 60 E 10 17 30.02 1017 10 16 0.00 0.00
8:53 pm 20:53 Partly Cloudy 69 20.6 62 16.7 78 78 SE 13 20 30.07 1018 10 16 0.00 0.00
9:53 pm 21:53 Mostly Cloudy 68 20 64 17.8 87 87 SSE 9 15 30.08 1019 10 16 0.00 0.00
10:33 pm 22:33 Cloudy with Rain 67 19.4 65 18.3 93 93 SSW 6 9 30.10 1019 7 11 0.04 1.02
10:53 pm 22:53 Cloudy with Light Rain 67 19.4 65 18.3 93 93 SSW 7 11 30.09 1019 9 14 0.06 1.52
11:53 pm 23:53 Cloudy with Light Rain 67 19.4 64 17.8 91 91 S 7 11 30.09 1019 10 16 0.03 0.76

Powered by AerisWeather